• In Schweiz
  • Länderverzeichnis
  • Für 7 Tage
  • Wassertemperatur
  • Satellitenkarten
  • Wetterkarte
  • Widgets
  • user-avatar
    Anmelden

    Stündliche Wetter Blenheim

    Heute, 17 Januar, Mittwoch

    Zeit Temperatur Niederschläge Wind Luftdruck Luftfeuchtigkeit
    00:00 +20°C° 0 mm 2 m/S 761 mmHg 79%
    01:00 +20°C° 0 mm 3 m/S 761 mmHg 79%
    02:00 +20°C° 0 mm 3 m/S 761 mmHg 80%
    03:00 +20°C° 0 mm 4 m/S 761 mmHg 80%
    04:00 +20°C° 0,1 mm 4 m/S 761 mmHg 82%
    05:00 +20°C° 0,1 mm 4 m/S 761 mmHg 84%
    06:00 +19°C° 0 mm 4 m/S 760 mmHg 87%
    07:00 +20°C° 0,2 mm 4 m/S 760 mmHg 85%
    08:00 +20°C° 0,2 mm 4 m/S 760 mmHg 82%
    09:00 +21°C° 0,2 mm 5 m/S 760 mmHg 80%
    10:00 +21°C° 0,7 mm 4 m/S 760 mmHg 79%
    11:00 +21°C° 0,7 mm 4 m/S 760 mmHg 79%
    12:00 +21°C° 0 mm 5 m/S 760 mmHg 80%
    13:00 +21°C° 1,1 mm 4 m/S 760 mmHg 82%
    14:00 +20°C° 1,1 mm 4 m/S 760 mmHg 83%
    15:00 +20°C° 1,1 mm 3 m/S 759 mmHg 85%
    16:00 +20°C° 1,5 mm 3 m/S 759 mmHg 87%
    17:00 +20°C° 1,5 mm 3 m/S 759 mmHg 89%
    18:00 +19°C° 0 mm 3 m/S 759 mmHg 91%
    19:00 +19°C° 4 mm 3 m/S 759 mmHg 92%
    20:00 +19°C° 4 mm 3 m/S 759 mmHg 93%
    21:00 +19°C° 4 mm 3 m/S 760 mmHg 95%
    22:00 +19°C° 3,3 mm 4 m/S 759 mmHg 95%
    23:00 +19°C° 3,3 mm 5 m/S 759 mmHg 96%

    Morgen, 18 Januar, Donnerstag

    Zeit Temperatur Niederschläge Wind Luftdruck Luftfeuchtigkeit
    00:00 +19°C° 0 mm 6 m/S 759 mmHg 95%
    01:00 +19°C° 0,8 mm 6 m/S 759 mmHg 95%
    02:00 +19°C° 0,8 mm 6 m/S 759 mmHg 95%
    03:00 +20°C° 0,8 mm 5 m/S 758 mmHg 95%
    04:00 +20°C° 0,3 mm 5 m/S 758 mmHg 95%
    05:00 +20°C° 0,3 mm 5 m/S 758 mmHg 95%
    06:00 +20°C° 0,3 mm 5 m/S 758 mmHg 95%
    07:00 +20°C° 0,2 mm 5 m/S 758 mmHg 93%
    08:00 +21°C° 0,2 mm 5 m/S 758 mmHg 90%
    09:00 +21°C° 0,2 mm 5 m/S 758 mmHg 88%
    10:00 +22°C° 0,2 mm 5 m/S 758 mmHg 86%
    11:00 +22°C° 0,2 mm 5 m/S 758 mmHg 84%
    12:00 +23°C° 0,2 mm 5 m/S 758 mmHg 82%
    13:00 +23°C° 0,2 mm 5 m/S 758 mmHg 82%
    14:00 +23°C° 0,2 mm 5 m/S 758 mmHg 82%
    15:00 +23°C° 0,2 mm 5 m/S 757 mmHg 81%
    16:00 +23°C° 0,2 mm 5 m/S 757 mmHg 82%
    17:00 +23°C° 0,2 mm 4 m/S 757 mmHg 82%
    18:00 +22°C° 0,2 mm 4 m/S 757 mmHg 83%
    19:00 +21°C° 0,1 mm 4 m/S 757 mmHg 86%
    20:00 +20°C° 0,1 mm 4 m/S 758 mmHg 89%
    21:00 +19°C° 0,1 mm 4 m/S 758 mmHg 93%
    22:00 +19°C° 0 mm 4 m/S 758 mmHg 93%
    23:00 +19°C° 0 mm 3 m/S 758 mmHg 92%

    übermorgen, 19 Januar, Freitag

    Zeit Temperatur Niederschläge Wind Luftdruck Luftfeuchtigkeit
    00:00 +19°C° 0 mm 3 m/S 759 mmHg 92%
    01:00 +19°C° 0 mm 3 m/S 759 mmHg 92%
    02:00 +18°C° 0 mm 3 m/S 759 mmHg 92%
    03:00 +18°C° 0 mm 2 m/S 759 mmHg 92%
    04:00 +18°C° 0 mm 2 m/S 759 mmHg 92%
    05:00 +18°C° 0 mm 2 m/S 759 mmHg 92%
    06:00 +19°C° 0 mm 1 m/S 760 mmHg 92%
    07:00 +21°C° 0 mm 1 m/S 760 mmHg 85%
    08:00 +23°C° 0 mm 1 m/S 761 mmHg 77%
    09:00 +24°C° 0 mm 1 m/S 761 mmHg 70%
    10:00 +25°C° 0 mm 2 m/S 761 mmHg 66%
    11:00 +26°C° 0 mm 2 m/S 761 mmHg 62%
    12:00 +27°C° 0 mm 3 m/S 761 mmHg 59%
    13:00 +27°C° 0 mm 3 m/S 761 mmHg 58%
    14:00 +28°C° 0 mm 4 m/S 761 mmHg 58%
    15:00 +28°C° 0 mm 4 m/S 760 mmHg 57%
    16:00 +28°C° 0 mm 4 m/S 760 mmHg 61%
    17:00 +27°C° 0 mm 5 m/S 760 mmHg 64%
    18:00 +26°C° 0 mm 5 m/S 760 mmHg 68%
    19:00 +25°C° 0 mm 4 m/S 760 mmHg 75%
    20:00 +22°C° 0 mm 4 m/S 761 mmHg 82%
    21:00 +21°C° 0 mm 4 m/S 761 mmHg 90%
    22:00 +21°C° 0 mm 4 m/S 761 mmHg 90%
    23:00 +20°C° 0 mm 4 m/S 761 mmHg 91%

    20 Januar, Samstag

    Zeit Temperatur Niederschläge Wind Luftdruck Luftfeuchtigkeit
    00:00 +20°C° 0 mm 4 m/S 761 mmHg 92%
    01:00 +20°C° 0 mm 5 m/S 761 mmHg 92%
    02:00 +20°C° 0 mm 5 m/S 761 mmHg 91%
    03:00 +20°C° 0 mm 5 m/S 760 mmHg 91%
    04:00 +20°C° 0 mm 5 m/S 761 mmHg 90%
    05:00 +20°C° 0 mm 5 m/S 761 mmHg 89%
    06:00 +20°C° 0 mm 5 m/S 761 mmHg 88%
    07:00 +22°C° 0 mm 5 m/S 761 mmHg 77%
    08:00 +25°C° 0 mm 5 m/S 761 mmHg 66%
    09:00 +27°C° 0 mm 5 m/S 761 mmHg 55%
    10:00 +28°C° 0 mm 6 m/S 761 mmHg 52%
    11:00 +30°C° 0 mm 6 m/S 761 mmHg 49%
    12:00 +32°C° 0 mm 6 m/S 761 mmHg 45%
    13:00 +32°C° 0 mm 6 m/S 761 mmHg 47%
    14:00 +32°C° 0 mm 6 m/S 761 mmHg 49%
    15:00 +32°C° 0 mm 6 m/S 761 mmHg 51%
    16:00 +30°C° 0 mm 6 m/S 761 mmHg 56%
    17:00 +29°C° 0 mm 5 m/S 761 mmHg 61%
    18:00 +28°C° 0 mm 5 m/S 761 mmHg 67%
    19:00 +26°C° 0 mm 5 m/S 761 mmHg 74%
    20:00 +23°C° 0 mm 4 m/S 761 mmHg 82%
    21:00 +22°C° 0 mm 4 m/S 762 mmHg 90%
    22:00 +21°C° 0 mm 3 m/S 762 mmHg 90%
    23:00 +21°C° 0 mm 3 m/S 762 mmHg 89%

    21 Januar, Sonntag

    Zeit Temperatur Niederschläge Wind Luftdruck Luftfeuchtigkeit
    00:00 +21°C° 0 mm 3 m/S 762 mmHg 88%
    01:00 +20°C° 0 mm 3 m/S 762 mmHg 88%
    02:00 +20°C° 0 mm 3 m/S 762 mmHg 87%
    03:00 +20°C° 0 mm 3 m/S 761 mmHg 86%
    04:00 +20°C° 0 mm 3 m/S 762 mmHg 85%
    05:00 +20°C° 0 mm 3 m/S 762 mmHg 85%
    06:00 +20°C° 0 mm 3 m/S 762 mmHg 84%
    07:00 +22°C° 0 mm 3 m/S 762 mmHg 74%
    08:00 +26°C° 0 mm 3 m/S 762 mmHg 65%
    09:00 +28°C° 0 mm 3 m/S 763 mmHg 55%
    10:00 +29°C° 0 mm 3 m/S 762 mmHg 52%
    11:00 +30°C° 0 mm 4 m/S 762 mmHg 49%
    12:00 +32°C° 0 mm 4 m/S 762 mmHg 47%
    13:00 +32°C° 0,1 mm 4 m/S 762 mmHg 47%
    14:00 +32°C° 0,1 mm 5 m/S 761 mmHg 48%
    15:00 +32°C° 0,1 mm 5 m/S 761 mmHg 49%
    16:00 +30°C° 0,1 mm 5 m/S 761 mmHg 53%
    17:00 +29°C° 0,1 mm 4 m/S 761 mmHg 57%
    18:00 +28°C° 0,1 mm 4 m/S 761 mmHg 61%
    19:00 +26°C° 0,1 mm 4 m/S 761 mmHg 68%
    20:00 +25°C° 0,1 mm 4 m/S 761 mmHg 76%
    21:00 +22°C° 0,1 mm 4 m/S 761 mmHg 83%
    22:00 +22°C° 0 mm 4 m/S 761 mmHg 84%
    23:00 +22°C° 0 mm 4 m/S 761 mmHg 85%

    22 Januar, Montag

    Zeit Temperatur Niederschläge Wind Luftdruck Luftfeuchtigkeit
    00:00 +22°C° 0 mm 4 m/S 761 mmHg 86%
    01:00 +22°C° 0,1 mm 4 m/S 761 mmHg 86%
    02:00 +21°C° 0,1 mm 4 m/S 760 mmHg 87%
    03:00 +21°C° 0,1 mm 4 m/S 760 mmHg 88%
    04:00 +21°C° 0,4 mm 4 m/S 760 mmHg 89%
    05:00 +21°C° 0,4 mm 3 m/S 760 mmHg 90%
    06:00 +21°C° 0,4 mm 3 m/S 760 mmHg 91%
    07:00 +21°C° 0,5 mm 3 m/S 760 mmHg 91%
    08:00 +21°C° 0,5 mm 3 m/S 760 mmHg 90%
    09:00 +22°C° 0,5 mm 3 m/S 760 mmHg 90%
    10:00 +22°C° 0,2 mm 4 m/S 760 mmHg 85%
    11:00 +23°C° 0,2 mm 4 m/S 760 mmHg 80%
    12:00 +25°C° 0,2 mm 4 m/S 759 mmHg 75%
    13:00 +26°C° 0 mm 4 m/S 759 mmHg 70%
    14:00 +27°C° 0 mm 5 m/S 759 mmHg 64%
    15:00 +28°C° 0 mm 5 m/S 758 mmHg 59%
    16:00 +28°C° 0,1 mm 5 m/S 758 mmHg 63%
    17:00 +27°C° 0,1 mm 4 m/S 758 mmHg 66%
    18:00 +27°C° 0,1 mm 4 m/S 758 mmHg 69%
    19:00 +25°C° 0 mm 4 m/S 758 mmHg 76%
    20:00 +23°C° 0 mm 4 m/S 758 mmHg 83%
    21:00 +21°C° 0 mm 3 m/S 758 mmHg 90%
    22:00 +21°C° 0 mm 3 m/S 758 mmHg 91%
    23:00 +21°C° 0 mm 3 m/S 758 mmHg 91%
    Mehr zeigen